Printer-friendly version

IAU Minor Planet Center

Minor Planet Center

MPEC 2001-W32: 2000 FN10

The following Minor Planet Electronic Circular may be linked-to from your own Web pages, but must not otherwise be redistributed electronically.


Read MPEC 2001-W31 Read MPEC 2001-W33


M.P.E.C. 2001-W32                                Issued 2001 Nov. 20, 20:22 UT

     The Minor Planet Electronic Circulars contain information on unusual
         minor planets and routine data on comets.  They are published
   on behalf of Commission 20 of the International Astronomical Union by the
          Minor Planet Center, Smithsonian Astrophysical Observatory,
                          Cambridge, MA 02138, U.S.A.

             Prepared using the Tamkin Foundation Computer Network

                              MPC@CFA.HARVARD.EDU
          URL http://cfa-www.harvard.edu/iau/mpc.html  ISSN 1523-6714

                                   2000 FN10

                           Revision to MPEC 2000-G08

Observations:
     K00F10N 7C2001 11 18.22950 04 43 26.17 +58 03 16.8                      696
     K00F10N 7C2001 11 18.23212 04 43 25.74 +58 03 17.3                      696
     K00F10N 7C2001 11 20.31501 04 39 04.69 +58 14 44.2                      696
     K00F10N 7C2001 11 20.31917 04 39 04.23 +58 14 45.3                      696

Observer details:
696 Whipple Observatory, Mt. Hopkins.  Observer T. B. Spahr.  1.2-m reflector
    + CCD.

First and last observations above in comparison with prediction:
Residuals in seconds of arc, reference and Delta-T
011118 696 17.1+  6.0+    011120 696 16.4+  5.9+    MPO  4952   -0.033 day

Orbital elements:
2000 FN10
Epoch 2001 Oct. 18.0 TT = JDT 2452200.5                 MPC
M 189.02674              (2000.0)            P               Q
n   0.36515267     Peri.  235.11726     -0.45869377     +0.88607753
a   1.9385919      Node     8.42940     -0.59077330     -0.24791205
e   0.4557969      Incl.   27.12385     -0.66376722     -0.39167108
P   2.70           H   17.1           G   0.15           U   2
Residuals in seconds of arc
000330 704  0.0   0.0     000403 428  0.5+  0.2+    000424 860  0.4-  0.4-
000330 704  0.2-  0.3+    000405 860  0.3-  0.7-    000426 808  0.3+  0.7-
000330 704  0.1+  0.9+    000405 860  0.5-  0.5+    000426 808  1.0+  0.8-
000330 704  0.5+  1.2+    000405 860  0.2-  0.0     000430 413  0.0   0.3-
000330 704  0.5+  1.9+    000405 860  0.7-  0.2-    000430 413  0.1-  0.2-
000331 670  0.0   0.6-    000405 860  0.1+  0.1+    000430 428  0.4-  0.0
000331 428  0.7+  1.1+    000405 860  0.2-  0.3-    000430 428  0.1-  0.9+
000331 428  0.8+  1.1+    000405 860  0.1+  0.3-    000430 860  0.8-  1.0+
000331 428  0.8+  1.0+    000405 860  0.1-  0.4-    000430 860  1.3-  0.0
000331 670  0.1-  0.4-    000405 860  0.3+  0.2-    000612 413  0.4+  0.0
000331 046  0.1+  0.2+    000406 808  0.7+  0.6-    000612 413  0.4+  0.1-
000331 046  0.1+  0.1+    000406 808  0.7-  1.8+    000612 413  0.4+  0.1-
000331 046  0.2+  0.4-    000406 808 (1.3+  5.0-)   000613 860  0.0   1.2+
000331 046  0.1+  0.2-    000408 428  0.3+  0.1-    000613 860  1.3-  1.0+
000331 046  0.3+  0.2+    000408 428  0.3+  0.3-    000613 860  1.5-  0.1-
000331 046  0.0   0.1-    000408 428  0.3+  0.2-    000613 413  0.4+  0.1+
000401 620  0.0   0.1+    000408 428  0.3+  0.1-    000613 413  0.5+  0.0
000401 620  0.2+  0.3-    000411 860  0.3-  0.7-    000706 413  0.5+  0.0
000401 620  0.1-  0.0     000411 860  0.0   0.3-    000706 413  0.5+  0.0
000401 670  0.5-  0.1-    000411 860  0.3-  0.3-    000706 413  0.5+  0.0
000401 670  0.7-  0.1-    000411 860  0.0   0.5-    000720 413  0.4+  0.1-
000401 428  0.3+  0.2-    000411 860  0.0   1.1-    000720 413  0.5+  0.0
000401 428  0.2+  0.0     000411 860  0.0   0.2-    000720 413  0.4+  0.1-
000401 349  0.1+  0.4+    000411 808 (0.0   2.0+)   000722 413  0.3+  0.0
000401 349  0.2-  0.1-    000411 808 (0.5-  2.5-)   000722 413  0.3+  0.1-
000401 349  0.1-  0.3-    000411 808  0.5-  0.3+    000722 413  0.3+  0.1-
000401 349  0.5+  0.3-    000411 808  0.2-  0.7+    000727 474  0.2-  0.1-
000401 151 (1.3+  2.6-)   000411 808  0.6-  1.2+    000727 474  0.2-  0.1-
000401 151  0.7-  0.0     000411 808  0.8-  0.1-    000727 474  0.2-  0.0
000401 151  1.7-  2.0-    000411 413  0.0   0.6-    000822 860  0.8-  1.8+
000401 151  1.9-  0.4-    000411 413  0.1-  0.6-    000822 860  0.3-  1.1-
000401 151  0.2-  0.8+    000414 428  1.0+  1.0+    000822 860  0.1+  1.6-
000401 151  1.6-  0.9-    000414 428  1.6+  1.8+    000825 808  0.4-  0.8+
000402 860  0.3-  1.3-    000414 428  1.0+  1.1+    000825 808  0.6-  1.8+
000402 860  0.4+  0.6-    000414 428  1.8+  1.3+    000923 808 (0.4-  2.4-)
000402 860  0.5+  0.3-    000416 860  0.2-  0.3-    000923 808 (0.2-  6.2-)
000402 860  0.2+  0.1-    000416 860  0.2-  0.7-    011118 696  0.5+  0.9+
000402 860  0.1-  0.1-    000416 860  0.2-  0.4-    011118 696  0.3-  0.4+
000403 428  0.4+  0.1-    000424 860  0.3+  0.0     011120 696  0.8-  0.6+
000403 428  0.5+  0.2+    000424 860  0.6+  0.4-    011120 696  0.1-  0.4+

Ephemeris:
2000 FN10                a,e,i = 1.94, 0.46, 27                  q = 1.0550
Date    TT    R. A. (2000) Decl.     Delta      r     Elong.  Phase     V
2001 11 17    04 45.92   +57 55.7    1.978    2.797   138.5    13.5    21.6
2001 11 27    04 24.27   +58 38.9    1.939    2.787   142.4    12.5    21.5
2001 12 07    04 01.26   +58 37.1    1.926    2.775   142.7    12.4    21.5
2001 12 17    03 40.10   +57 51.7    1.938    2.761   139.5    13.4    21.5
2001 12 27    03 23.41   +56 33.2    1.974    2.746   133.6    15.0    21.6
2002 01 06    03 12.37   +54 56.7    2.031    2.729   126.1    16.9    21.7
2002 01 16    03 07.00   +53 15.7    2.105    2.710   118.1    18.7    21.8
2002 01 26    03 06.72   +51 40.4    2.191    2.690   109.9    20.1    22.0

Brian G. Marsden             (C) Copyright 2001 MPC           M.P.E.C. 2001-W32

Read MPEC 2001-W31 Read MPEC 2001-W33


Our Web policy. Index to the CBAT/MPC/ICQ pages.


Valid HTML 4.01!